• In Österreich
  • Länderverzeichnis
  • Für 7 Tage
  • Wassertemperatur
  • Satellitenkarten
  • Wetterkarte
  • News
  • Widgets
  • user-avatar
    Anmelden

    Stündliche Wetter Chymbarivka

    Heute, 18 August, Samstag

    Zeit Temperatur Niederschläge Wind Luftdruck Luftfeuchtigkeit
    00:00 +21°C° 0 mm 1 m/S 736 mmHg 79%
    01:00 +21°C° 0 mm 1 m/S 736 mmHg 79%
    02:00 +18°C° 0 mm 0 m/S 736 mmHg 83%
    03:00 +20°C° 0,1 mm 1 m/S 736 mmHg 83%
    04:00 +19°C° 0,1 mm 1 m/S 736 mmHg 84%
    05:00 +19°C° 0,1 mm 1 m/S 736 mmHg 84%
    06:00 +21°C° 0,2 mm 1 m/S 736 mmHg 81%
    07:00 +22°C° 0,2 mm 1 m/S 736 mmHg 77%
    08:00 +23°C° 0 mm 1 m/S 737 mmHg 72%
    09:00 +25°C° 0,1 mm 1 m/S 737 mmHg 67%
    10:00 +27°C° 0,1 mm 1 m/S 737 mmHg 62%
    11:00 +28°C° 0,1 mm 1 m/S 737 mmHg 56%
    12:00 +29°C° 0 mm 1 m/S 737 mmHg 53%
    13:00 +30°C° 0 mm 1 m/S 737 mmHg 49%
    14:00 +31°C° 0 mm 1 m/S 737 mmHg 45%
    15:00 +30°C° 0 mm 1 m/S 737 mmHg 47%
    16:00 +30°C° 0 mm 1 m/S 737 mmHg 48%
    17:00 +30°C° 0 mm 2 m/S 737 mmHg 49%
    18:00 +28°C° 0 mm 2 m/S 737 mmHg 55%
    19:00 +26°C° 0 mm 2 m/S 737 mmHg 60%
    20:00 +25°C° 0 mm 2 m/S 737 mmHg 65%
    21:00 +24°C° 0,2 mm 2 m/S 737 mmHg 68%
    22:00 +23°C° 0,2 mm 2 m/S 737 mmHg 72%
    23:00 +21°C° 0,2 mm 2 m/S 737 mmHg 75%

    Morgen, 19 August, Sonntag

    Zeit Temperatur Niederschläge Wind Luftdruck Luftfeuchtigkeit
    00:00 +20°C° 0,5 mm 2 m/S 737 mmHg 78%
    01:00 +20°C° 0,5 mm 2 m/S 737 mmHg 82%
    02:00 +20°C° 0,5 mm 1 m/S 737 mmHg 86%
    03:00 +20°C° 0 mm 1 m/S 737 mmHg 87%
    04:00 +19°C° 0 mm 1 m/S 737 mmHg 88%
    05:00 +19°C° 0 mm 1 m/S 737 mmHg 90%
    06:00 +19°C° 0 mm 2 m/S 737 mmHg 86%
    07:00 +21°C° 0 mm 2 m/S 737 mmHg 83%
    08:00 +23°C° 0 mm 2 m/S 738 mmHg 79%
    09:00 +24°C° 0 mm 2 m/S 738 mmHg 73%
    10:00 +26°C° 0 mm 2 m/S 738 mmHg 67%
    11:00 +27°C° 0 mm 2 m/S 738 mmHg 62%
    12:00 +28°C° 0 mm 2 m/S 738 mmHg 59%
    13:00 +28°C° 0 mm 2 m/S 738 mmHg 56%
    14:00 +29°C° 0 mm 2 m/S 738 mmHg 53%
    15:00 +28°C° 0 mm 2 m/S 737 mmHg 54%
    16:00 +28°C° 0 mm 2 m/S 737 mmHg 55%
    17:00 +28°C° 0 mm 2 m/S 737 mmHg 56%
    18:00 +27°C° 0,1 mm 2 m/S 737 mmHg 61%
    19:00 +25°C° 0,1 mm 2 m/S 737 mmHg 66%
    20:00 +23°C° 0,1 mm 2 m/S 737 mmHg 72%
    21:00 +21°C° 0 mm 2 m/S 737 mmHg 74%
    22:00 +21°C° 0 mm 2 m/S 737 mmHg 77%
    23:00 +20°C° 0 mm 2 m/S 737 mmHg 80%

    übermorgen, 20 August, Montag

    Zeit Temperatur Niederschläge Wind Luftdruck Luftfeuchtigkeit
    00:00 +20°C° 0 mm 2 m/S 737 mmHg 82%
    01:00 +19°C° 0 mm 2 m/S 737 mmHg 84%
    02:00 +20°C° 0 mm 1 m/S 737 mmHg 86%
    03:00 +20°C° 0 mm 1 m/S 737 mmHg 88%
    04:00 +19°C° 0 mm 1 m/S 737 mmHg 89%
    05:00 +19°C° 0 mm 1 m/S 737 mmHg 91%
    06:00 +19°C° 0 mm 2 m/S 737 mmHg 86%
    07:00 +21°C° 0 mm 2 m/S 737 mmHg 81%
    08:00 +23°C° 0 mm 2 m/S 737 mmHg 76%
    09:00 +25°C° 0 mm 2 m/S 737 mmHg 70%
    10:00 +26°C° 0 mm 1 m/S 737 mmHg 65%
    11:00 +28°C° 0 mm 1 m/S 737 mmHg 59%
    12:00 +28°C° 0,1 mm 1 m/S 737 mmHg 56%
    13:00 +29°C° 0,1 mm 1 m/S 737 mmHg 52%
    14:00 +30°C° 0,1 mm 1 m/S 736 mmHg 49%
    15:00 +30°C° 0 mm 1 m/S 736 mmHg 50%
    16:00 +29°C° 0 mm 1 m/S 736 mmHg 50%
    17:00 +27°C° 0 mm 0 m/S 735 mmHg 51%
    18:00 +25°C° 0 mm 0 m/S 735 mmHg 55%
    19:00 +24°C° 0 mm 0 m/S 735 mmHg 59%
    20:00 +22°C° 0 mm 0 m/S 735 mmHg 63%
    21:00 +24°C° 0 mm 1 m/S 735 mmHg 66%
    22:00 +23°C° 0 mm 1 m/S 735 mmHg 69%
    23:00 +22°C° 0 mm 1 m/S 736 mmHg 71%

    21 August, Dienstag

    Zeit Temperatur Niederschläge Wind Luftdruck Luftfeuchtigkeit
    00:00 +22°C° 0 mm 1 m/S 735 mmHg 73%
    01:00 +19°C° 0 mm 0 m/S 735 mmHg 75%
    02:00 +19°C° 0 mm 0 m/S 735 mmHg 78%
    03:00 +19°C° 0 mm 0 m/S 735 mmHg 79%
    04:00 +18°C° 0 mm 0 m/S 735 mmHg 80%
    05:00 +18°C° 0 mm 0 m/S 735 mmHg 82%
    06:00 +21°C° 0 mm 1 m/S 735 mmHg 77%
    07:00 +23°C° 0 mm 1 m/S 735 mmHg 73%
    08:00 +24°C° 0 mm 1 m/S 736 mmHg 68%
    09:00 +26°C° 0 mm 1 m/S 736 mmHg 64%
    10:00 +27°C° 0 mm 2 m/S 736 mmHg 59%
    11:00 +28°C° 0 mm 2 m/S 736 mmHg 55%
    12:00 +29°C° 0 mm 2 m/S 736 mmHg 52%
    13:00 +30°C° 0 mm 2 m/S 736 mmHg 50%
    14:00 +30°C° 0 mm 2 m/S 735 mmHg 47%
    15:00 +30°C° 0,2 mm 3 m/S 735 mmHg 51%
    16:00 +29°C° 0,2 mm 3 m/S 735 mmHg 54%
    17:00 +29°C° 0,2 mm 3 m/S 735 mmHg 57%
    18:00 +27°C° 0,1 mm 3 m/S 736 mmHg 64%
    19:00 +25°C° 0,1 mm 3 m/S 736 mmHg 72%
    20:00 +22°C° 0,1 mm 3 m/S 736 mmHg 79%
    21:00 +21°C° 0 mm 3 m/S 736 mmHg 82%
    22:00 +21°C° 0 mm 3 m/S 737 mmHg 84%
    23:00 +20°C° 0 mm 3 m/S 737 mmHg 87%

    22 August, Mittwoch

    Zeit Temperatur Niederschläge Wind Luftdruck Luftfeuchtigkeit
    00:00 +19°C° 0 mm 3 m/S 737 mmHg 88%
    01:00 +19°C° 0 mm 3 m/S 737 mmHg 89%
    02:00 +18°C° 0 mm 3 m/S 737 mmHg 89%
    03:00 +17°C° 0 mm 3 m/S 738 mmHg 89%
    04:00 +17°C° 0 mm 3 m/S 738 mmHg 89%
    05:00 +16°C° 0 mm 3 m/S 738 mmHg 89%
    06:00 +17°C° 0 mm 3 m/S 739 mmHg 85%
    07:00 +18°C° 0 mm 3 m/S 739 mmHg 80%
    08:00 +19°C° 0 mm 3 m/S 739 mmHg 75%
    09:00 +21°C° 0 mm 3 m/S 740 mmHg 68%
    10:00 +22°C° 0 mm 3 m/S 740 mmHg 62%
    11:00 +24°C° 0 mm 3 m/S 740 mmHg 55%
    12:00 +25°C° 0 mm 3 m/S 740 mmHg 53%
    13:00 +25°C° 0 mm 3 m/S 740 mmHg 50%
    14:00 +26°C° 0 mm 3 m/S 740 mmHg 48%
    15:00 +25°C° 0 mm 3 m/S 740 mmHg 50%
    16:00 +25°C° 0 mm 3 m/S 740 mmHg 51%
    17:00 +25°C° 0 mm 3 m/S 740 mmHg 53%
    18:00 +22°C° 0 mm 3 m/S 740 mmHg 58%
    19:00 +20°C° 0 mm 3 m/S 740 mmHg 63%
    20:00 +19°C° 0 mm 3 m/S 740 mmHg 67%
    21:00 +18°C° 0 mm 3 m/S 740 mmHg 68%
    22:00 +17°C° 0 mm 3 m/S 740 mmHg 70%
    23:00 +16°C° 0 mm 3 m/S 740 mmHg 71%

    23 August, Donnerstag

    Zeit Temperatur Niederschläge Wind Luftdruck Luftfeuchtigkeit
    00:00 +16°C° 0 mm 3 m/S 740 mmHg 71%
    01:00 +14°C° 0 mm 3 m/S 740 mmHg 71%
    02:00 +14°C° 0 mm 3 m/S 740 mmHg 71%
    03:00 +14°C° 0 mm 3 m/S 740 mmHg 71%
    04:00 +13°C° 0 mm 3 m/S 740 mmHg 70%
    05:00 +13°C° 0 mm 3 m/S 740 mmHg 70%
    06:00 +14°C° 0 mm 3 m/S 740 mmHg 67%
    07:00 +16°C° 0 mm 3 m/S 740 mmHg 65%
    08:00 +17°C° 0 mm 3 m/S 740 mmHg 62%
    09:00 +19°C° 0 mm 4 m/S 740 mmHg 57%
    10:00 +21°C° 0 mm 4 m/S 740 mmHg 52%
    11:00 +22°C° 0 mm 4 m/S 740 mmHg 47%
    12:00 +23°C° 0 mm 4 m/S 739 mmHg 45%
    13:00 +25°C° 0 mm 3 m/S 739 mmHg 43%
    14:00 +26°C° 0 mm 3 m/S 739 mmHg 41%
    15:00 +26°C° 0 mm 3 m/S 738 mmHg 42%
    16:00 +25°C° 0 mm 3 m/S 738 mmHg 44%
    17:00 +25°C° 0 mm 3 m/S 738 mmHg 46%
    18:00 +22°C° 0 mm 3 m/S 738 mmHg 50%
    19:00 +20°C° 0 mm 3 m/S 737 mmHg 54%
    20:00 +18°C° 0 mm 3 m/S 737 mmHg 57%
    21:00 +18°C° 0 mm 3 m/S 737 mmHg 58%
    22:00 +17°C° 0 mm 3 m/S 737 mmHg 59%
    23:00 +16°C° 0 mm 3 m/S 737 mmHg 59%
    Mehr zeigen